Location: Newark
(58.6000°N, 7.8338°E)
Time: 08:50:40
(UTC+00:00)

OTV 5 (USA 277) - Pass Details

Date: 26 August 2019
Orbit: 310 x 324 km, 54.5° (Epoch: 17 October)

Event Time Altitude Azimuth Distance (km) Brightness Sun altitude
Rises 19:58:38 0° 216° (SW) 2,036 ? -9.0°
Reaches altitude 10° 20:01:03 10° 193° (SSW) 1,208 ? -9.2°
Maximum altitude 20:02:47 16° 153° (SSE) 946 ? -9.4°
Enters shadow 20:03:12 15° 141° (SE) 964 ? -9.5°
